| time (UTC) | temp F | wind direction | speed MPH | gust MPH | rain 1hr in | rain 24hr in | rain mn in | humidity % | barometer mb |
| 20260508003536 | 48 | 0 | 0.0 | 2.0 | 0.00 | 0.00 | 0.00 | 79 | 1015.3 |
| 20260508003049 | 48 | 51 | 0.0 | 2.0 | 0.00 | 0.00 | 0.00 | 79 | 1015.3 |
| 20260508002535 | 48 | 51 | 0.0 | 2.0 | 0.00 | 0.00 | 0.00 | 79 | 1015.3 |
| 20260508002038 | 48 | 0 | 0.0 | 1.0 | 0.00 | 0.00 | 0.00 | 79 | 1015.4 |
| 20260508001549 | 48 | 51 | 0.0 | 1.0 | 0.00 | 0.00 | 0.00 | 80 | 1015.5 |
| 20260508001036 | 48 | 51 | 0.0 | 1.0 | 0.00 | 0.00 | 0.00 | 79 | 1015.5 |
| 20260508000537 | 48 | 0 | 0.0 | 1.0 | 0.00 | 0.00 | 0.00 | 79 | 1015.5 |
| 20260508000111 | 48 | 0 | 0.0 | 1.0 | 0.00 | 0.00 | 0.00 | 79 | 1015.5 |
| 20260507235539 | 48 | 0 | 0.0 | 1.0 | 0.00 | 0.00 | 0.00 | 79 | 1015.6 |
| 20260507235034 | 47 | 0 | 0.0 | 3.0 | 0.00 | 0.00 | 0.00 | 79 | 1015.5 |
| 20260507234547 | 47 | 51 | 0.0 | 3.0 | 0.00 | 0.00 | 0.00 | 79 | 1015.6 |
| 20260507234039 | 47 | 51 | 1.0 | 3.0 | 0.00 | 0.00 | 0.00 | 79 | 1015.5 |
| 20260507233537 | 47 | 46 | 0.0 | 3.0 | 0.00 | 0.00 | 0.00 | 79 | 1015.5 |
| 20260507233050 | 47 | 54 | 0.0 | 2.0 | 0.00 | 0.00 | 0.00 | 79 | 1015.6 |
| 20260507232537 | 48 | 0 | 0.0 | 2.0 | 0.00 | 0.00 | 0.00 | 78 | 1015.6 |
| 20260507232034 | 48 | 0 | 0.0 | 2.0 | 0.00 | 0.00 | 0.00 | 78 | 1015.6 |
| 20260507231620 | 48 | 54 | 0.0 | 2.0 | 0.00 | 0.00 | 0.00 | 77 | 1015.6 |
| 20260507231036 | 48 | 0 | 0.0 | 2.0 | 0.00 | 0.00 | 0.00 | 77 | 1015.7 |
| 20260507230540 | 48 | 0 | 0.0 | 2.0 | 0.00 | 0.00 | 0.00 | 77 | 1015.7 |
| 20260507230052 | 48 | 0 | 0.0 | 2.0 | 0.00 | 0.00 | 0.00 | 77 | 1015.8 |
| 20260507225536 | 48 | 54 | 0.0 | 2.0 | 0.00 | 0.00 | 0.00 | 78 | 1015.7 |
| 20260507225036 | 48 | 0 | 0.0 | 2.0 | 0.00 | 0.00 | 0.00 | 78 | 1015.6 |
| 20260507224544 | 48 | 61 | 0.0 | 3.0 | 0.00 | 0.00 | 0.00 | 77 | 1015.5 |
| 20260507224036 | 48 | 0 | 1.0 | 3.0 | 0.00 | 0.00 | 0.00 | 77 | 1015.5 |
| 20260507223538 | 48 | 57 | 0.0 | 3.0 | 0.00 | 0.00 | 0.00 | 77 | 1015.4 |
| 20260507223043 | 48 | 57 | 0.0 | 3.0 | 0.00 | 0.00 | 0.00 | 78 | 1015.4 |
| 20260507222535 | 48 | 47 | 1.0 | 3.0 | 0.00 | 0.00 | 0.00 | 78 | 1015.5 |
| 20260507222036 | 48 | 57 | 1.0 | 3.0 | 0.00 | 0.00 | 0.00 | 78 | 1015.5 |
| 20260507221551 | 48 | 0 | 0.0 | 2.0 | 0.00 | 0.00 | 0.00 | 79 | 1015.4 |
| 20260507221036 | 48 | 57 | 0.0 | 2.0 | 0.00 | 0.00 | 0.00 | 78 | 1015.4 |
| 20260507220539 | 48 | 57 | 0.0 | 2.0 | 0.00 | 0.00 | 0.00 | 78 | 1015.4 |
| 20260507220041 | 48 | 57 | 0.0 | 2.0 | 0.00 | 0.00 | 0.00 | 77 | 1015.4 |
| 20260507215535 | 48 | 0 | 0.0 | 2.0 | 0.00 | 0.00 | 0.00 | 77 | 1015.4 |
| 20260507215035 | 48 | 0 | 0.0 | 2.0 | 0.00 | 0.00 | 0.00 | 77 | 1015.2 |
| 20260507214545 | 48 | 0 | 0.0 | 2.0 | 0.00 | 0.00 | 0.00 | 77 | 1015.1 |
| 20260507214036 | 49 | 0 | 0.0 | 2.0 | 0.00 | 0.00 | 0.00 | 76 | 1015.0 |
| 20260507213537 | 49 | 57 | 0.0 | 2.0 | 0.00 | 0.00 | 0.00 | 76 | 1015.0 |
| 20260507213043 | 49 | 0 | 0.0 | 2.0 | 0.00 | 0.00 | 0.00 | 76 | 1015.0 |
| 20260507212536 | 49 | 0 | 0.0 | 2.0 | 0.00 | 0.00 | 0.00 | 75 | 1015.0 |
| 20260507212038 | 49 | 57 | 0.0 | 2.0 | 0.00 | 0.00 | 0.00 | 74 | 1014.8 |
| 20260507211551 | 50 | 57 | 0.0 | 3.0 | 0.00 | 0.00 | 0.00 | 73 | 1014.7 |
| 20260507211035 | 50 | 57 | 0.0 | 3.0 | 0.00 | 0.00 | 0.00 | 72 | 1014.7 |
| 20260507210535 | 51 | 56 | 0.0 | 3.0 | 0.00 | 0.00 | 0.00 | 71 | 1014.5 |
| 20260507210048 | 51 | 29 | 0.0 | 3.0 | 0.00 | 0.00 | 0.00 | 70 | 1014.5 |
| 20260507205535 | 52 | 0 | 0.0 | 2.0 | 0.00 | 0.00 | 0.00 | 68 | 1014.5 |
| 20260507205037 | 52 | 0 | 0.0 | 7.0 | 0.00 | 0.00 | 0.00 | 66 | 1014.6 |
| 20260507204541 | 52 | 0 | 1.0 | 7.0 | 0.00 | 0.00 | 0.00 | 64 | 1014.5 |
| 20260507204034 | 53 | 0 | 0.0 | 5.0 | 0.00 | 0.00 | 0.00 | 64 | 1014.3 |
| 20260507203536 | 52 | 0 | 1.0 | 5.0 | 0.00 | 0.00 | 0.00 | 63 | 1014.4 |
| 20260507203041 | 52 | 35 | 0.0 | 4.0 | 0.00 | 0.00 | 0.00 | 64 | 1014.3 |
| 20260507202539 | 53 | 0 | 0.0 | 4.0 | 0.00 | 0.00 | 0.00 | 64 | 1014.3 |
| 20260507202036 | 53 | 323 | 0.0 | 4.0 | 0.00 | 0.00 | 0.00 | 63 | 1014.3 |
| 20260507201539 | 53 | 0 | 0.0 | 3.0 | 0.00 | 0.00 | 0.00 | 64 | 1014.4 |
| 20260507201036 | 53 | 277 | 0.0 | 4.0 | 0.00 | 0.00 | 0.00 | 64 | 1014.2 |
| 20260507200536 | 53 | 355 | 0.0 | 4.0 | 0.00 | 0.00 | 0.00 | 64 | 1014.1 |
| 20260507200043 | 53 | 66 | 1.0 | 10.0 | 0.00 | 0.00 | 0.00 | 64 | 1014.0 |
| 20260507195536 | 53 | 237 | 1.0 | 10.0 | 0.00 | 0.00 | 0.00 | 63 | 1014.0 |
| 20260507195036 | 53 | 157 | 0.0 | 10.0 | 0.00 | 0.00 | 0.00 | 63 | 1013.8 |
| 20260507194542 | 53 | 0 | 0.0 | 2.0 | 0.00 | 0.00 | 0.00 | 64 | 1013.7 |
| 20260507194035 | 53 | 0 | 0.0 | 3.0 | 0.00 | 0.00 | 0.00 | 63 | 1013.7 |
| 20260507193536 | 53 | 244 | 0.0 | 3.0 | 0.00 | 0.00 | 0.00 | 62 | 1013.5 |
| 20260507193051 | 53 | 244 | 0.0 | 3.0 | 0.00 | 0.00 | 0.00 | 62 | 1013.4 |
| 20260507192536 | 54 | 0 | 0.0 | 3.0 | 0.00 | 0.00 | 0.00 | 62 | 1013.2 |
| 20260507192036 | 54 | 186 | 0.0 | 3.0 | 0.00 | 0.00 | 0.00 | 61 | 1013.1 |
| 20260507191540 | 54 | 0 | 0.0 | 3.0 | 0.00 | 0.00 | 0.00 | 61 | 1013.1 |
| 20260507191039 | 54 | 22 | 0.0 | 3.0 | 0.00 | 0.00 | 0.00 | 61 | 1012.8 |
| 20260507190536 | 54 | 77 | 1.0 | 3.0 | 0.00 | 0.00 | 0.00 | 60 | 1012.9 |
| 20260507190046 | 54 | 0 | 0.0 | 3.0 | 0.00 | 0.00 | 0.00 | 61 | 1012.7 |
| 20260507185536 | 54 | 0 | 0.0 | 3.0 | 0.00 | 0.00 | 0.00 | 61 | 1012.8 |
| 20260507185035 | 54 | 0 | 0.0 | 4.0 | 0.00 | 0.00 | 0.00 | 60 | 1012.7 |
| 20260507184550 | 54 | 0 | 0.0 | 4.0 | 0.00 | 0.00 | 0.00 | 61 | 1012.7 |
| 20260507184039 | 55 | 0 | 0.0 | 4.0 | 0.00 | 0.00 | 0.00 | 60 | 1012.5 |
| 20260507183535 | 55 | 144 | 0.0 | 4.0 | 0.00 | 0.00 | 0.00 | 59 | 1012.6 |
| 20260507183042 | 55 | 0 | 0.0 | 4.0 | 0.00 | 0.00 | 0.00 | 60 | 1012.4 |
| 20260507182537 | 55 | 279 | 0.0 | 3.0 | 0.00 | 0.00 | 0.00 | 59 | 1012.4 |
| 20260507182034 | 56 | 0 | 0.0 | 3.0 | 0.00 | 0.00 | 0.00 | 59 | 1012.6 |
| 20260507181542 | 56 | 0 | 0.0 | 5.0 | 0.00 | 0.00 | 0.00 | 59 | 1012.4 |
| 20260507181035 | 56 | 0 | 0.0 | 7.0 | 0.00 | 0.00 | 0.00 | 60 | 1012.4 |
| 20260507180536 | 56 | 0 | 1.0 | 7.0 | 0.00 | 0.00 | 0.00 | 60 | 1012.2 |
| 20260507180051 | 57 | 11 | 1.0 | 5.0 | 0.00 | 0.00 | 0.00 | 58 | 1012.1 |
| 20260507175536 | 57 | 32 | 1.0 | 5.0 | 0.00 | 0.00 | 0.00 | 58 | 1012.1 |
| 20260507175036 | 58 | 0 | 0.0 | 3.0 | 0.00 | 0.00 | 0.00 | 59 | 1012.1 |
| 20260507174607 | 58 | 0 | 1.0 | 3.0 | 0.00 | 0.00 | 0.00 | 60 | 1011.9 |
| 20260507174035 | 58 | 268 | 1.0 | 3.0 | 0.00 | 0.00 | 0.00 | 58 | 1011.9 |
| 20260507173536 | 58 | 160 | 0.0 | 2.0 | 0.00 | 0.00 | 0.00 | 57 | 1011.9 |
| 20260507173050 | 58 | 160 | 0.0 | 5.0 | 0.00 | 0.00 | 0.00 | 59 | 1011.8 |
| 20260507172535 | 58 | 0 | 2.0 | 5.0 | 0.00 | 0.00 | 0.00 | 58 | 1011.8 |
| 20260507172036 | 59 | 161 | 0.0 | 6.0 | 0.00 | 0.00 | 0.00 | 57 | 1011.8 |
| 20260507171559 | 60 | 202 | 1.0 | 6.0 | 0.00 | 0.00 | 0.00 | 57 | 1011.8 |
| 20260507171036 | 60 | 161 | 2.0 | 5.0 | 0.00 | 0.00 | 0.00 | 57 | 1011.8 |
| 20260507170536 | 60 | 0 | 1.0 | 7.0 | 0.00 | 0.00 | 0.00 | 57 | 1011.6 |
| 20260507170051 | 60 | 136 | 1.0 | 7.0 | 0.00 | 0.00 | 0.00 | 58 | 1011.6 |
| 20260507165539 | 60 | 264 | 1.0 | 7.0 | 0.00 | 0.00 | 0.00 | 58 | 1011.7 |
| 20260507165035 | 59 | 278 | 2.0 | 9.0 | 0.00 | 0.00 | 0.00 | 58 | 1011.6 |
| 20260507164541 | 59 | 218 | 2.0 | 11.0 | 0.00 | 0.00 | 0.00 | 57 | 1011.6 |
| 20260507164037 | 60 | 294 | 3.0 | 11.0 | 0.00 | 0.00 | 0.00 | 55 | 1011.7 |
| 20260507163536 | 61 | 221 | 2.0 | 12.0 | 0.00 | 0.00 | 0.00 | 55 | 1011.7 |
| 20260507163049 | 61 | 140 | 3.0 | 12.0 | 0.00 | 0.00 | 0.00 | 55 | 1011.7 |
| 20260507162536 | 62 | 186 | 2.0 | 8.0 | 0.00 | 0.00 | 0.00 | 54 | 1011.5 |
| 20260507162036 | 62 | 265 | 3.0 | 8.0 | 0.00 | 0.00 | 0.00 | 53 | 1011.6 |
| 20260507161552 | 62 | 277 | 2.0 | 11.0 | 0.00 | 0.00 | 0.00 | 54 | 1011.5 |
| 20260507161037 | 62 | 247 | 3.0 | 11.0 | 0.00 | 0.00 | 0.00 | 54 | 1011.6 |
| 20260507160536 | 62 | 164 | 3.0 | 7.0 | 0.00 | 0.00 | 0.00 | 53 | 1011.6 |
| 20260507160110 | 63 | 169 | 3.0 | 8.0 | 0.00 | 0.00 | 0.00 | 52 | 1011.5 |
| 20260507155535 | 63 | 246 | 3.0 | 9.0 | 0.00 | 0.00 | 0.00 | 53 | 1011.5 |
| 20260507155036 | 63 | 190 | 3.0 | 9.0 | 0.00 | 0.00 | 0.00 | 51 | 1011.6 |
| 20260507154543 | 63 | 254 | 3.0 | 14.0 | 0.00 | 0.00 | 0.00 | 52 | 1011.5 |
| 20260507154037 | 63 | 301 | 3.0 | 14.0 | 0.00 | 0.00 | 0.00 | 52 | 1011.5 |
| 20260507153537 | 63 | 220 | 4.0 | 11.0 | 0.00 | 0.00 | 0.00 | 51 | 1011.3 |
| 20260507153048 | 63 | 273 | 4.0 | 10.0 | 0.00 | 0.00 | 0.00 | 50 | 1011.4 |
| 20260507152537 | 63 | 217 | 3.0 | 10.0 | 0.00 | 0.00 | 0.00 | 50 | 1011.4 |
| 20260507152038 | 63 | 211 | 4.0 | 10.0 | 0.00 | 0.00 | 0.00 | 50 | 1011.3 |
| 20260507151553 | 63 | 179 | 4.0 | 13.0 | 0.00 | 0.00 | 0.00 | 49 | 1011.3 |
| 20260507151036 | 63 | 244 | 4.0 | 13.0 | 0.00 | 0.00 | 0.00 | 49 | 1011.4 |
| 20260507150536 | 64 | 236 | 4.0 | 9.0 | 0.00 | 0.00 | 0.00 | 49 | 1011.4 |
| 20260507150053 | 64 | 252 | 3.0 | 10.0 | 0.00 | 0.00 | 0.00 | 49 | 1011.3 |
| 20260507145540 | 64 | 185 | 3.0 | 12.0 | 0.00 | 0.00 | 0.00 | 50 | 1011.4 |
| 20260507145037 | 64 | 232 | 3.0 | 12.0 | 0.00 | 0.00 | 0.00 | 48 | 1011.4 |
| 20260507144551 | 64 | 202 | 4.0 | 12.0 | 0.00 | 0.00 | 0.00 | 49 | 1011.6 |
| 20260507144036 | 64 | 189 | 3.0 | 12.0 | 0.00 | 0.00 | 0.00 | 47 | 1011.4 |
| 20260507143536 | 64 | 173 | 2.0 | 11.0 | 0.00 | 0.00 | 0.00 | 47 | 1011.5 |
| 20260507143055 | 64 | 140 | 3.0 | 11.0 | 0.00 | 0.00 | 0.00 | 47 | 1011.4 |
| 20260507142535 | 64 | 226 | 4.0 | 12.0 | 0.00 | 0.00 | 0.00 | 46 | 1011.4 |
| 20260507142036 | 64 | 213 | 3.0 | 13.0 | 0.00 | 0.00 | 0.00 | 45 | 1011.4 |
| 20260507141602 | 64 | 237 | 4.0 | 13.0 | 0.00 | 0.00 | 0.00 | 45 | 1011.4 |
| 20260507141036 | 64 | 194 | 4.0 | 11.0 | 0.00 | 0.00 | 0.00 | 45 | 1011.4 |
| 20260507140536 | 63 | 163 | 4.0 | 11.0 | 0.00 | 0.00 | 0.00 | 46 | 1011.6 |
| 20260507140048 | 64 | 136 | 4.0 | 13.0 | 0.00 | 0.00 | 0.00 | 45 | 1011.6 |
| 20260507135538 | 63 | 170 | 4.0 | 13.0 | 0.00 | 0.00 | 0.00 | 47 | 1011.5 |
| 20260507135037 | 64 | 222 | 3.0 | 12.0 | 0.00 | 0.00 | 0.00 | 48 | 1011.6 |
| 20260507134549 | 65 | 146 | 5.0 | 12.0 | 0.00 | 0.00 | 0.00 | 47 | 1011.4 |
| 20260507134036 | 65 | 146 | 2.0 | 13.0 | 0.00 | 0.00 | 0.00 | 47 | 1011.5 |
| 20260507133537 | 64 | 204 | 4.0 | 13.0 | 0.00 | 0.00 | 0.00 | 46 | 1011.4 |
| 20260507133043 | 64 | 168 | 3.0 | 13.0 | 0.00 | 0.00 | 0.00 | 47 | 1011.5 |
| 20260507132537 | 64 | 205 | 4.0 | 14.0 | 0.00 | 0.00 | 0.00 | 47 | 1011.6 |
| 20260507132036 | 64 | 231 | 5.0 | 14.0 | 0.00 | 0.00 | 0.00 | 41 | 1011.7 |
| 20260507131609 | 64 | 219 | 4.0 | 13.0 | 0.00 | 0.00 | 0.00 | 43 | 1011.7 |
| 20260507131038 | 64 | 165 | 4.0 | 12.0 | 0.00 | 0.00 | 0.00 | 44 | 1011.8 |
| 20260507130538 | 64 | 186 | 3.0 | 12.0 | 0.00 | 0.00 | 0.00 | 45 | 1011.9 |
| 20260507130050 | 64 | 259 | 4.0 | 13.0 | 0.00 | 0.00 | 0.00 | 45 | 1011.7 |
| 20260507125537 | 63 | 160 | 5.0 | 13.0 | 0.00 | 0.00 | 0.00 | 44 | 1011.8 |
| 20260507125035 | 64 | 223 | 5.0 | 14.0 | 0.00 | 0.00 | 0.00 | 41 | 1011.8 |
| 20260507124552 | 64 | 161 | 3.0 | 14.0 | 0.00 | 0.00 | 0.00 | 44 | 1011.7 |
| 20260507124036 | 64 | 221 | 3.0 | 11.0 | 0.00 | 0.00 | 0.00 | 43 | 1011.9 |
| 20260507123536 | 63 | 302 | 3.0 | 12.0 | 0.00 | 0.00 | 0.00 | 43 | 1011.9 |
| 20260507123046 | 63 | 262 | 3.0 | 12.0 | 0.00 | 0.00 | 0.00 | 44 | 1012.0 |
| 20260507122535 | 63 | 201 | 5.0 | 11.0 | 0.00 | 0.00 | 0.00 | 40 | 1012.0 |
| 20260507122037 | 63 | 216 | 3.0 | 9.0 | 0.00 | 0.00 | 0.00 | 39 | 1011.9 |
| 20260507121549 | 63 | 222 | 3.0 | 14.0 | 0.00 | 0.00 | 0.00 | 41 | 1011.9 |
| 20260507121036 | 62 | 194 | 3.0 | 14.0 | 0.00 | 0.00 | 0.00 | 41 | 1012.0 |
| 20260507120532 | 62 | 300 | 4.0 | 12.0 | 0.00 | 0.00 | 0.00 | 40 | 1012.0 |
| 20260507120050 | 62 | 212 | 5.0 | 12.0 | 0.00 | 0.00 | 0.00 | 40 | 1012.2 |
| 20260507115536 | 62 | 134 | 4.0 | 12.0 | 0.00 | 0.00 | 0.00 | 40 | 1012.0 |
| 20260507115036 | 62 | 238 | 5.0 | 12.0 | 0.00 | 0.00 | 0.00 | 40 | 1012.2 |
| 20260507114546 | 62 | 257 | 3.0 | 12.0 | 0.00 | 0.00 | 0.00 | 43 | 1012.1 |
| 20260507114042 | 62 | 194 | 3.0 | 13.0 | 0.00 | 0.00 | 0.00 | 44 | 1012.1 |
| 20260507113534 | 62 | 182 | 4.0 | 13.0 | 0.00 | 0.00 | 0.00 | 44 | 1012.1 |
| 20260507113105 | 61 | 159 | 2.0 | 8.0 | 0.00 | 0.00 | 0.00 | 47 | 1012.2 |
| 20260507112538 | 60 | 88 | 2.0 | 10.0 | 0.00 | 0.00 | 0.00 | 45 | 1012.3 |
| 20260507112036 | 60 | 136 | 3.0 | 13.0 | 0.00 | 0.00 | 0.00 | 46 | 1012.4 |
| 20260507111543 | 59 | 202 | 3.0 | 13.0 | 0.00 | 0.00 | 0.00 | 47 | 1012.4 |
| 20260507111035 | 59 | 208 | 6.0 | 11.0 | 0.00 | 0.00 | 0.00 | 46 | 1012.4 |
| 20260507110535 | 59 | 206 | 2.0 | 10.0 | 0.00 | 0.00 | 0.00 | 50 | 1012.5 |
| 20260507110043 | 59 | 152 | 4.0 | 10.0 | 0.00 | 0.00 | 0.00 | 49 | 1012.4 |
| 20260507105537 | 59 | 176 | 3.0 | 11.0 | 0.00 | 0.13 | 0.00 | 48 | 1012.4 |
| 20260507105036 | 58 | 161 | 3.0 | 12.0 | 0.00 | 0.13 | 0.00 | 48 | 1012.5 |
| 20260507104606 | 58 | 163 | 4.0 | 12.0 | 0.00 | 0.13 | 0.00 | 48 | 1012.6 |
| 20260507104036 | 58 | 247 | 2.0 | 10.0 | 0.00 | 0.13 | 0.00 | 50 | 1012.6 |
| 20260507103538 | 58 | 184 | 3.0 | 10.0 | 0.00 | 0.13 | 0.00 | 51 | 1012.7 |
| 20260507103049 | 58 | 233 | 3.0 | 10.0 | 0.00 | 0.13 | 0.00 | 52 | 1012.7 |
| 20260507102536 | 57 | 169 | 5.0 | 11.0 | 0.00 | 0.13 | 0.00 | 52 | 1012.8 |
| 20260507102036 | 57 | 136 | 4.0 | 11.0 | 0.00 | 0.13 | 0.00 | 53 | 1012.9 |
| 20260507101545 | 56 | 204 | 3.0 | 10.0 | 0.00 | 0.13 | 0.00 | 54 | 1012.9 |
| 20260507101037 | 56 | 192 | 4.0 | 10.0 | 0.00 | 0.13 | 0.00 | 52 | 1012.9 |
| 20260507100536 | 56 | 159 | 3.0 | 10.0 | 0.00 | 0.13 | 0.00 | 50 | 1013.0 |
| 20260507100054 | 56 | 184 | 4.0 | 10.0 | 0.00 | 0.13 | 0.00 | 49 | 1013.1 |
| 20260507095540 | 56 | 108 | 2.0 | 9.0 | 0.00 | 0.13 | 0.00 | 54 | 1013.1 |
| 20260507095037 | 55 | 179 | 2.0 | 9.0 | 0.00 | 0.13 | 0.00 | 54 | 1013.1 |
| 20260507094550 | 55 | 219 | 3.0 | 9.0 | 0.00 | 0.13 | 0.00 | 55 | 1013.1 |
| 20260507094039 | 54 | 120 | 2.0 | 9.0 | 0.00 | 0.13 | 0.00 | 53 | 1013.1 |
| 20260507093536 | 54 | 141 | 2.0 | 10.0 | 0.00 | 0.13 | 0.00 | 57 | 1013.0 |
| 20260507093049 | 54 | 164 | 3.0 | 10.0 | 0.00 | 0.13 | 0.00 | 54 | 1013.0 |
| 20260507092534 | 53 | 0 | 2.0 | 9.0 | 0.00 | 0.13 | 0.00 | 55 | 1013.0 |
| 20260507092037 | 53 | 203 | 2.0 | 9.0 | 0.00 | 0.13 | 0.00 | 57 | 1013.0 |
| 20260507091550 | 53 | 168 | 3.0 | 8.0 | 0.00 | 0.13 | 0.00 | 56 | 1013.0 |
| 20260507091041 | 53 | 219 | 2.0 | 7.0 | 0.00 | 0.13 | 0.00 | 58 | 1013.0 |
| 20260507090536 | 52 | 215 | 2.0 | 9.0 | 0.00 | 0.13 | 0.00 | 58 | 1013.0 |
| 20260507090043 | 52 | 159 | 2.0 | 9.0 | 0.00 | 0.13 | 0.00 | 59 | 1013.1 |
| 20260507085536 | 52 | 178 | 2.0 | 7.0 | 0.00 | 0.13 | 0.00 | 61 | 1013.0 |
| 20260507085038 | 52 | 124 | 2.0 | 6.0 | 0.00 | 0.13 | 0.00 | 63 | 1013.0 |
| 20260507084553 | 51 | 137 | 2.0 | 6.0 | 0.00 | 0.13 | 0.00 | 63 | 1012.8 |
| 20260507084035 | 51 | 132 | 2.0 | 5.0 | 0.00 | 0.13 | 0.00 | 62 | 1013.0 |
| 20260507083537 | 51 | 180 | 1.0 | 5.0 | 0.00 | 0.13 | 0.00 | 62 | 1013.0 |
| 20260507083052 | 50 | 0 | 1.0 | 5.0 | 0.00 | 0.13 | 0.00 | 62 | 1013.0 |
| 20260507082535 | 50 | 165 | 1.0 | 5.0 | 0.00 | 0.13 | 0.00 | 62 | 1013.0 |
| 20260507082036 | 49 | 0 | 1.0 | 5.0 | 0.00 | 0.13 | 0.00 | 59 | 1013.0 |
| 20260507081542 | 48 | 153 | 0.0 | 5.0 | 0.00 | 0.13 | 0.00 | 68 | 1013.0 |
| 20260507081036 | 48 | 186 | 2.0 | 5.0 | 0.00 | 0.13 | 0.00 | 67 | 1013.0 |
| 20260507080536 | 47 | 182 | 1.0 | 5.0 | 0.00 | 0.13 | 0.00 | 70 | 1013.0 |
| 20260507080052 | 47 | 0 | 1.0 | 4.0 | 0.00 | 0.13 | 0.00 | 70 | 1013.1 |
| 20260507075540 | 47 | 136 | 0.0 | 4.0 | 0.00 | 0.14 | 0.00 | 71 | 1013.0 |
| 20260507075036 | 46 | 173 | 1.0 | 3.0 | 0.00 | 0.14 | 0.00 | 71 | 1013.0 |
| 20260507074548 | 46 | 0 | 0.0 | 4.0 | 0.00 | 0.14 | 0.00 | 71 | 1013.0 |
| 20260507074035 | 45 | 146 | 0.0 | 4.0 | 0.00 | 0.14 | 0.00 | 69 | 1013.0 |
| 20260507073536 | 45 | 0 | 0.0 | 4.0 | 0.00 | 0.14 | 0.00 | 69 | 1013.0 |
| 20260507073044 | 45 | 0 | 0.0 | 4.0 | 0.00 | 0.14 | 0.00 | 74 | 1013.0 |
| 20260507072536 | 44 | 0 | 1.0 | 5.0 | 0.00 | 0.14 | 0.00 | 74 | 1013.0 |
| 20260507072035 | 44 | 0 | 1.0 | 5.0 | 0.00 | 0.14 | 0.00 | 76 | 1013.0 |
| 20260507071546 | 44 | 0 | 1.0 | 3.0 | 0.00 | 0.14 | 0.00 | 78 | 1013.0 |
| 20260507071035 | 43 | 0 | 0.0 | 3.0 | 0.00 | 0.14 | 0.00 | 81 | 1013.0 |
| 20260507070535 | 43 | 145 | 0.0 | 2.0 | 0.00 | 0.14 | 0.00 | 81 | 1013.0 |
| 20260507070054 | 43 | 0 | 0.0 | 1.0 | 0.00 | 0.14 | 0.00 | 80 | 1013.0 |
| 20260507065538 | 42 | 0 | 0.0 | 1.0 | 0.00 | 0.14 | 0.00 | 79 | 1013.0 |
| 20260507065036 | 42 | 0 | 0.0 | 1.0 | 0.00 | 0.14 | 0.00 | 73 | 1013.1 |
| 20260507064546 | 42 | 0 | 0.0 | 1.0 | 0.00 | 0.14 | 0.00 | 74 | 1013.1 |
| 20260507064036 | 41 | 0 | 0.0 | 1.0 | 0.00 | 0.14 | 0.00 | 73 | 1013.1 |
| 20260507063535 | 41 | 0 | 0.0 | 1.0 | 0.00 | 0.14 | 0.00 | 74 | 1013.1 |
| 20260507063041 | 41 | 0 | 0.0 | 1.0 | 0.00 | 0.14 | 0.00 | 75 | 1013.2 |
| 20260507062536 | 41 | 0 | 0.0 | 1.0 | 0.00 | 0.14 | 0.00 | 77 | 1013.2 |
| 20260507062037 | 41 | 0 | 0.0 | 2.0 | 0.00 | 0.14 | 0.00 | 80 | 1013.1 |
| 20260507061545 | 41 | 0 | 0.0 | 2.0 | 0.00 | 0.14 | 0.00 | 80 | 1013.0 |
| 20260507061036 | 41 | 0 | 0.0 | 1.0 | 0.00 | 0.14 | 0.00 | 77 | 1012.9 |
| 20260507060535 | 41 | 88 | 0.0 | 2.0 | 0.00 | 0.14 | 0.00 | 75 | 1013.0 |
| 20260507060045 | 40 | 0 | 0.0 | 2.0 | 0.00 | 0.14 | 0.00 | 75 | 1013.0 |
| 20260507055536 | 40 | 88 | 0.0 | 2.0 | 0.00 | 0.20 | 0.00 | 74 | 1012.9 |
| 20260507055033 | 40 | 88 | 0.0 | 2.0 | 0.00 | 0.20 | 0.00 | 74 | 1012.9 |
| 20260507054544 | 40 | 0 | 0.0 | 2.0 | 0.00 | 0.20 | 0.00 | 73 | 1012.9 |
| 20260507054037 | 40 | 0 | 0.0 | 2.0 | 0.00 | 0.20 | 0.00 | 73 | 1013.0 |
| 20260507053535 | 40 | 0 | 0.0 | 1.0 | 0.00 | 0.20 | 0.00 | 72 | 1013.0 |
| 20260507053042 | 40 | 0 | 0.0 | 1.0 | 0.00 | 0.20 | 0.00 | 73 | 1012.8 |
| 20260507052535 | 40 | 0 | 0.0 | 1.0 | 0.00 | 0.20 | 0.00 | 74 | 1012.8 |
| 20260507052035 | 40 | 0 | 0.0 | 1.0 | 0.00 | 0.20 | 0.00 | 72 | 1012.8 |
| 20260507051549 | 40 | 88 | 0.0 | 2.0 | 0.00 | 0.20 | 0.00 | 72 | 1012.8 |
| 20260507051034 | 40 | 0 | 0.0 | 2.0 | 0.00 | 0.20 | 0.00 | 72 | 1012.7 |
| 20260507050538 | 40 | 0 | 0.0 | 2.0 | 0.00 | 0.20 | 0.00 | 71 | 1012.6 |
| 20260507050105 | 40 | 88 | 0.0 | 2.0 | 0.00 | 0.20 | 0.00 | 71 | 1012.5 |
| 20260507045534 | 40 | 0 | 0.0 | 2.0 | 0.00 | 0.22 | 0.00 | 71 | 1012.4 |
| 20260507045034 | 40 | 0 | 0.0 | 2.0 | 0.00 | 0.22 | 0.00 | 71 | 1012.4 |
| 20260507044552 | 40 | 88 | 0.0 | 1.0 | 0.00 | 0.22 | 0.00 | 71 | 1012.3 |
| 20260507044039 | 40 | 0 | 0.0 | 2.0 | 0.00 | 0.22 | 0.00 | 71 | 1012.4 |
| 20260507043535 | 40 | 0 | 0.0 | 2.0 | 0.00 | 0.22 | 0.00 | 72 | 1012.4 |
| 20260507043042 | 40 | 0 | 0.0 | 2.0 | 0.00 | 0.22 | 0.00 | 71 | 1012.3 |
| 20260507042538 | 39 | 0 | 0.0 | 2.0 | 0.00 | 0.22 | 0.00 | 72 | 1012.1 |
| 20260507042034 | 39 | 0 | 0.0 | 2.0 | 0.00 | 0.22 | 0.00 | 73 | 1012.2 |
| 20260507041544 | 39 | 0 | 0.0 | 2.0 | 0.00 | 0.22 | 0.00 | 73 | 1012.1 |
| 20260507041034 | 40 | 0 | 0.0 | 2.0 | 0.00 | 0.22 | 0.00 | 73 | 1012.1 |
| 20260507040537 | 40 | 0 | 0.0 | 2.0 | 0.00 | 0.22 | 0.00 | 73 | 1012.1 |
| 20260507040045 | 40 | 88 | 0.0 | 2.0 | 0.00 | 0.22 | 0.00 | 74 | 1012.1 |
| 20260507035535 | 39 | 0 | 0.0 | 2.0 | 0.00 | 0.22 | 0.00 | 75 | 1012.1 |
| 20260507035036 | 39 | 88 | 0.0 | 2.0 | 0.00 | 0.22 | 0.00 | 76 | 1012.0 |
| 20260507034542 | 39 | 88 | 0.0 | 2.0 | 0.00 | 0.22 | 0.00 | 76 | 1012.0 |
| 20260507034036 | 40 | 88 | 0.0 | 1.0 | 0.00 | 0.22 | 0.00 | 75 | 1012.0 |
| 20260507033535 | 40 | 88 | 0.0 | 2.0 | 0.00 | 0.22 | 0.00 | 75 | 1012.0 |
| 20260507033047 | 40 | 0 | 0.0 | 2.0 | 0.00 | 0.22 | 0.00 | 73 | 1012.1 |
| 20260507032534 | 40 | 88 | 0.0 | 1.0 | 0.00 | 0.22 | 0.00 | 73 | 1012.0 |
| 20260507032034 | 40 | 0 | 0.0 | 2.0 | 0.00 | 0.22 | 0.00 | 73 | 1012.0 |
| 20260507031541 | 40 | 0 | 0.0 | 2.0 | 0.00 | 0.22 | 0.00 | 74 | 1012.0 |
| 20260507031038 | 40 | 88 | 0.0 | 2.0 | 0.00 | 0.22 | 0.00 | 73 | 1011.9 |
| 20260507030538 | 41 | 0 | 0.0 | 2.0 | 0.00 | 0.22 | 0.00 | 72 | 1012.0 |
| 20260507030044 | 41 | 0 | 0.0 | 2.0 | 0.00 | 0.22 | 0.00 | 71 | 1011.9 |
| 20260507025536 | 40 | 0 | 0.0 | 2.0 | 0.00 | 0.22 | 0.00 | 71 | 1012.0 |
| 20260507025036 | 40 | 88 | 0.0 | 2.0 | 0.00 | 0.22 | 0.00 | 72 | 1012.0 |
| 20260507024548 | 41 | 0 | 0.0 | 1.0 | 0.00 | 0.22 | 0.00 | 71 | 1012.0 |
| 20260507024034 | 40 | 0 | 0.0 | 2.0 | 0.00 | 0.22 | 0.00 | 71 | 1012.0 |
| 20260507023534 | 40 | 88 | 0.0 | 2.0 | 0.00 | 0.22 | 0.00 | 74 | 1011.9 |
| 20260507023043 | 40 | 0 | 0.0 | 2.0 | 0.00 | 0.22 | 0.00 | 75 | 1012.0 |
| 20260507022533 | 40 | 0 | 0.0 | 2.0 | 0.00 | 0.22 | 0.00 | 75 | 1012.0 |
| 20260507022035 | 40 | 0 | 0.0 | 2.0 | 0.00 | 0.22 | 0.00 | 75 | 1011.9 |
| 20260507021553 | 40 | 0 | 0.0 | 2.0 | 0.00 | 0.22 | 0.00 | 75 | 1011.9 |
| 20260507021032 | 40 | 0 | 0.0 | 2.0 | 0.00 | 0.22 | 0.00 | 74 | 1012.0 |
| 20260507020533 | 40 | 0 | 0.0 | 2.0 | 0.00 | 0.22 | 0.00 | 75 | 1011.8 |
| 20260507020042 | 41 | 88 | 0.0 | 3.0 | 0.00 | 0.22 | 0.00 | 74 | 1011.8 |
| 20260507015538 | 41 | 88 | 1.0 | 3.0 | 0.00 | 0.22 | 0.00 | 74 | 1011.8 |
| 20260507015036 | 41 | 0 | 0.0 | 3.0 | 0.00 | 0.22 | 0.00 | 74 | 1011.8 |
| 20260507014546 | 41 | 0 | 0.0 | 3.0 | 0.00 | 0.22 | 0.00 | 74 | 1011.8 |
| 20260507014036 | 41 | 29 | 0.0 | 2.0 | 0.00 | 0.22 | 0.00 | 75 | 1011.8 |
| 20260507013534 | 41 | 29 | 0.0 | 2.0 | 0.00 | 0.22 | 0.00 | 75 | 1011.9 |
| 20260507013045 | 41 | 0 | 0.0 | 2.0 | 0.00 | 0.22 | 0.00 | 76 | 1011.8 |
| 20260507012535 | 41 | 0 | 0.0 | 2.0 | 0.00 | 0.22 | 0.00 | 75 | 1011.8 |
| 20260507012034 | 41 | 0 | 0.0 | 2.0 | 0.00 | 0.22 | 0.00 | 75 | 1011.8 |
| 20260507011545 | 41 | 131 | 0.0 | 2.0 | 0.00 | 0.22 | 0.00 | 74 | 1011.8 |
| 20260507011032 | 41 | 0 | 0.0 | 2.0 | 0.00 | 0.22 | 0.00 | 75 | 1011.7 |
| 20260507010533 | 41 | 45 | 0.0 | 2.0 | 0.00 | 0.22 | 0.00 | 75 | 1011.7 |
| 20260507010046 | 41 | 45 | 0.0 | 2.0 | 0.00 | 0.22 | 0.00 | 75 | 1011.8 |
| 20260507005535 | 41 | 45 | 0.0 | 2.0 | 0.00 | 0.22 | 0.00 | 74 | 1011.8 |
| 20260507005037 | 41 | 0 | 0.0 | 2.0 | 0.00 | 0.22 | 0.00 | 73 | 1011.9 |
| 20260507004540 | 41 | 0 | 0.0 | 3.0 | 0.00 | 0.22 | 0.00 | 73 | 1011.8 |
| 20260507004036 | 42 | 45 | 0.0 | 3.0 | 0.00 | 0.22 | 0.00 | 74 | 1011.9 |